Starlink 4103

operational
NORAD ID: 53141 Int'l Des: 2022-083 Owner: SPXS Country: US Constellation: starlink
LEOCIRCULAR

About Starlink 4103

Description loading...

Live Position

Loading 3D Globe...

Upcoming Passes

Altitude History

Altitude vs Time

uPlot chart will show altitude changes over time

Two-Line Element Set

1 53141U 22083K 25296.79324860 -.00000881 00000-0 -37294-4 0 9990
2 53141 53.2181 68.6696 0001011 76.0323 284.0781 15.08842380180559
Epoch: Oct 23, 2025 • Age: 19 hours

Current Status

Altitude 545.7 km
Velocity 7.60 km/s
Sub-Earth Point 53.33°N, 93.02°W
Launch Date Jul 17, 2022
Age 3.2 years
Type internet

Technical Details

Classification Payload
Mass 297.00 kg
Dry Mass 275.00 kg
Total Mass 297.00 kg
Length 0.20 m
Diameter 2.80 m
Span 9.00 m
Shape Box + pan
Manufacturer SPXS
Bus Type Starlink
Phase Status In Orbit
Owner/State SPXS/US

Large Constellations

Loading constellations...